Gallatin Field Bozeman US
ICAO: KBZN
IATA: BZN
Category: Medium
Scheduled Services: Yes

Elevation: 4473 ft
TransAlt. 18000 ft.

Airport Communications:
ATIS:135.425
SALT LAKE CITY CNTR:132.4
CTAF:118.2
GND:121.8
GREAT FALLS RDO:122.5
BOZEMAN TWR:118.2
UNICOM:122.95

KBZN Zoom In..

Runways:

(A) RW 03 length 2650 ft width 75 ft
---- / hdg 33

(B) RW 11 length 3197 ft width 80 ft
---- / hdg 122

(C) RW 12 length 8994 ft width 150 ft
ILS 109.30 / hdg 123

(D) RW 21 length 2650 ft width 75 ft
---- / hdg 213

(E) RW 29 length 3197 ft width 80 ft
---- / hdg 302

(F) RW 30 length 8994 ft width 150 ft
---- / hdg 303

Location; KBZN
Day. 23 / Time. 08.56 Zulu
* Altimeter: 30.29
* Temperature: 12° c. 53.6°f.
* Wind from: 000° Speed 00 kn.
Dewpoint: 06° c.
Visibility: 10 Statute Miles.
Clouds: Clear (automated report).

KBZN 230856Z AUTO 00000KT 10SM CLR 12/06 A3029 RMK AO2 SLP222 T01170061 53004


Wind - Calm.

 
 
jpsmedia.com for Web Design worldairports.se 2018   terms of use